KLM312 TNCC-TNCM

Flight info

Callsign KLM312
Flight time 1h 11m
Altitude 37000
Route SCAPA L335 MLIZA L204 GOUDA
Aircraft B77W/H-SDE1E2E3FGHIJ2J3J4J5M1RWXY/LB1D1

Departure

Time 2026-04-14 14:04
Airport Hato International Airport (TNCC)

Arrival

Time 2026-04-14 15:15
Airport Princess Juliana International Airport (TNCM)
Time Latitude Longitude Altitude Speed Heading
2026-04-14 13:29 12.18827 -68.96847 31 ft 0 kts 191°
2026-04-14 13:56 12.18846 -68.96843 30 ft 4 kts 195°
2026-04-14 13:56 12.18872 -68.96835 31 ft 4 kts 199°
2026-04-14 13:56 12.18887 -68.96830 31 ft 0 kts 197°
2026-04-14 13:59 12.18861 -68.96846 31 ft 11 kts 228°
2026-04-14 13:59 12.18880 -68.96918 31 ft 10 kts 316°
2026-04-14 14:00 12.18926 -68.96971 31 ft 10 kts 302°
2026-04-14 14:00 12.18948 -68.97040 31 ft 10 kts 282°
2026-04-14 14:00 12.18968 -68.97134 31 ft 16 kts 282°
2026-04-14 14:00 12.18991 -68.97248 30 ft 17 kts 281°
2026-04-14 14:01 12.19015 -68.97365 30 ft 17 kts 282°
2026-04-14 14:01 12.19041 -68.97482 30 ft 17 kts 282°
2026-04-14 14:01 12.19064 -68.97569 31 ft 10 kts 304°
2026-04-14 14:01 12.19131 -68.97578 30 ft 10 kts
2026-04-14 14:02 12.19198 -68.97555 30 ft 10 kts 34°
2026-04-14 14:02 12.19212 -68.97487 30 ft 10 kts 98°
2026-04-14 14:02 12.19208 -68.97464 31 ft 0 kts 100°
2026-04-14 14:02 12.19200 -68.97422 31 ft 20 kts 102°
2026-04-14 14:03 12.19147 -68.97171 30 ft 51 kts 102°
2026-04-14 14:03 12.19045 -68.96688 33 ft 98 kts 102°
2026-04-14 14:03 12.18851 -68.95772 35 ft 163 kts 102°
2026-04-14 14:03 12.18571 -68.94555 493 ft 184 kts 99°
2026-04-14 14:04 12.18320 -68.93300 1490 ft 179 kts 101°
2026-04-14 14:04 12.18060 -68.92026 2244 ft 191 kts 102°
2026-04-14 14:04 12.17749 -68.90579 2548 ft 227 kts 103°
2026-04-14 14:04 12.17527 -68.88905 3061 ft 249 kts 85°
2026-04-14 14:05 12.18161 -68.87232 3875 ft 258 kts 52°
2026-04-14 14:05 12.19565 -68.86101 4884 ft 261 kts 27°
2026-04-14 14:05 12.21191 -68.85496 5636 ft 269 kts 18°
2026-04-14 14:05 12.23018 -68.84932 6348 ft 278 kts 17°
2026-04-14 14:06 12.24848 -68.84321 7067 ft 283 kts 21°
2026-04-14 14:06 12.26711 -68.83542 7830 ft 288 kts 21°
2026-04-14 14:06 12.28570 -68.82795 8588 ft 295 kts 20°
2026-04-14 14:06 12.30556 -68.82066 9277 ft 304 kts 18°
2026-04-14 14:07 12.32574 -68.81382 10063 ft 309 kts 17°
2026-04-14 14:07 12.34664 -68.80719 10607 ft 323 kts 15°
2026-04-14 14:07 12.36885 -68.80047 10806 ft 351 kts 15°
2026-04-14 14:07 12.39314 -68.79332 11108 ft 373 kts 14°
2026-04-14 14:08 12.41870 -68.78593 11885 ft 379 kts 14°
2026-04-14 14:08 12.44389 -68.77871 12847 ft 383 kts 14°
2026-04-14 14:08 12.46974 -68.77135 13730 ft 389 kts 14°
2026-04-14 14:08 12.49595 -68.76390 14539 ft 395 kts 13°
2026-04-14 14:09 12.52272 -68.75630 15304 ft 402 kts 13°
2026-04-14 14:09 12.54985 -68.74860 16039 ft 409 kts 12°
2026-04-14 14:09 12.57750 -68.74074 16792 ft 416 kts 12°
2026-04-14 14:09 12.60563 -68.73273 17549 ft 423 kts 12°
2026-04-14 14:10 12.63408 -68.72464 18336 ft 428 kts 11°
2026-04-14 14:10 12.66292 -68.71638 19049 ft 432 kts 12°
2026-04-14 14:10 12.69159 -68.70679 19826 ft 435 kts 15°
2026-04-14 14:10 12.72005 -68.69613 20570 ft 438 kts 16°
2026-04-14 14:11 12.74866 -68.68497 21267 ft 441 kts 17°
2026-04-14 14:11 12.77745 -68.67366 21936 ft 445 kts 17°
2026-04-14 14:11 12.80649 -68.66233 22600 ft 448 kts 16°
2026-04-14 14:11 12.83569 -68.65104 23264 ft 450 kts 16°
2026-04-14 14:12 12.86507 -68.63977 23847 ft 452 kts 16°
2026-04-14 14:12 12.89469 -68.62849 24353 ft 455 kts 16°
2026-04-14 14:12 12.92446 -68.61721 24832 ft 459 kts 16°
2026-04-14 14:12 12.95437 -68.60588 25319 ft 462 kts 15°
2026-04-14 14:13 12.98457 -68.59446 25817 ft 464 kts 15°
2026-04-14 14:13 13.01503 -68.58292 26291 ft 467 kts 16°
2026-04-14 14:13 13.04549 -68.57138 26792 ft 470 kts 16°
2026-04-14 14:13 13.07621 -68.55974 27284 ft 472 kts 16°
2026-04-14 14:14 13.10709 -68.54803 27764 ft 475 kts 16°
2026-04-14 14:14 13.13833 -68.53617 28208 ft 479 kts 16°
2026-04-14 14:14 13.16971 -68.52426 28643 ft 482 kts 16°
2026-04-14 14:14 13.20126 -68.51228 29031 ft 486 kts 16°
2026-04-14 14:15 13.23290 -68.50026 29458 ft 489 kts 16°
2026-04-14 14:15 13.26463 -68.48820 29933 ft 491 kts 15°
2026-04-14 14:15 13.29689 -68.47592 30325 ft 493 kts 15°
2026-04-14 14:15 13.32920 -68.46362 30695 ft 494 kts 15°
2026-04-14 14:16 13.36130 -68.45142 31014 ft 497 kts 15°
2026-04-14 14:16 13.39359 -68.43915 31321 ft 499 kts 15°
2026-04-14 14:16 13.42665 -68.42658 31685 ft 500 kts 15°
2026-04-14 14:17 13.49170 -68.40180 32626 ft 496 kts 15°
2026-04-14 14:17 13.52400 -68.38948 33073 ft 495 kts 15°
2026-04-14 14:17 13.55639 -68.37714 33507 ft 494 kts 15°
2026-04-14 14:17 13.58844 -68.36492 33955 ft 494 kts 15°
2026-04-14 14:18 13.62070 -68.35263 34313 ft 493 kts 15°
2026-04-14 14:18 13.65292 -68.34035 34613 ft 495 kts 15°
2026-04-14 14:18 13.68517 -68.32806 34913 ft 496 kts 15°
2026-04-14 14:18 13.71700 -68.31593 35203 ft 496 kts 15°
2026-04-14 14:19 13.74955 -68.30352 35528 ft 497 kts 15°
2026-04-14 14:19 13.78203 -68.29112 35826 ft 497 kts 15°
2026-04-14 14:19 13.81427 -68.27881 36103 ft 498 kts 15°
2026-04-14 14:19 13.84726 -68.26621 36412 ft 498 kts 15°
2026-04-14 14:20 13.87927 -68.25398 36696 ft 499 kts 15°
2026-04-14 14:20 13.91195 -68.24150 36934 ft 502 kts 14°
2026-04-14 14:20 13.97793 -68.21628 36949 ft 504 kts 14°
2026-04-14 14:21 14.04318 -68.19127 36957 ft 497 kts 14°
2026-04-14 14:21 14.10795 -68.16646 36964 ft 498 kts 14°
2026-04-14 14:22 14.17298 -68.14157 36976 ft 498 kts 14°
2026-04-14 14:22 14.23808 -68.11665 36986 ft 500 kts 14°
2026-04-14 14:23 14.30334 -68.09164 36980 ft 501 kts 14°
2026-04-14 14:23 14.36861 -68.06660 36976 ft 501 kts 14°
2026-04-14 14:24 14.43400 -68.04148 36975 ft 501 kts 14°
2026-04-14 14:24 14.49917 -68.01646 36977 ft 500 kts 14°
2026-04-14 14:25 14.56443 -67.99137 36998 ft 500 kts 14°
2026-04-14 14:25 14.62947 -67.96633 36985 ft 501 kts 14°
2026-04-14 14:26 14.69497 -67.94112 36977 ft 501 kts 14°
2026-04-14 14:26 14.75990 -67.91612 36986 ft 501 kts 14°
2026-04-14 14:27 14.81444 -67.89511 36983 ft 501 kts 14°
2026-04-14 14:27 14.89032 -67.86585 36988 ft 501 kts 13°
2026-04-14 14:28 14.94479 -67.84482 36981 ft 502 kts 13°
2026-04-14 14:28 15.01050 -67.81945 36978 ft 502 kts 13°
2026-04-14 14:29 15.07592 -67.79418 37003 ft 503 kts 13°
2026-04-14 14:29 15.14166 -67.76876 37001 ft 503 kts 13°
2026-04-14 14:30 15.20744 -67.74331 36996 ft 504 kts 13°
2026-04-14 14:30 15.27303 -67.71790 36988 ft 504 kts 13°
2026-04-14 14:31 15.33877 -67.69244 36985 ft 504 kts 13°
2026-04-14 14:31 15.40441 -67.66699 36987 ft 504 kts 13°
2026-04-14 14:32 15.47009 -67.64152 36988 ft 504 kts 13°
2026-04-14 14:32 15.53564 -67.61606 36999 ft 503 kts 13°
2026-04-14 14:33 15.60091 -67.59070 36987 ft 503 kts 13°
2026-04-14 14:33 15.66666 -67.56514 36988 ft 502 kts 12°
2026-04-14 14:34 15.76463 -67.52703 36992 ft 501 kts 12°
2026-04-14 14:35 15.82829 -67.49703 37007 ft 516 kts 29°
2026-04-14 14:35 15.85432 -67.47160 36981 ft 533 kts 47°
2026-04-14 14:35 15.87497 -67.43920 37034 ft 538 kts 53°
2026-04-14 14:36 15.91414 -67.37272 36999 ft 541 kts 53°
2026-04-14 14:36 15.95395 -67.30607 37003 ft 542 kts 53°
2026-04-14 14:37 15.99436 -67.24005 37003 ft 542 kts 52°
2026-04-14 14:37 16.03524 -67.17392 36999 ft 543 kts 52°
2026-04-14 14:38 16.07596 -67.10795 37001 ft 543 kts 52°
2026-04-14 14:38 16.11681 -67.04161 37007 ft 544 kts 52°
2026-04-14 14:39 16.15759 -66.97524 37003 ft 545 kts 52°
2026-04-14 14:39 16.19847 -66.90864 37001 ft 546 kts 52°
2026-04-14 14:40 16.23906 -66.84246 37008 ft 548 kts 52°
2026-04-14 14:40 16.28020 -66.77536 37003 ft 548 kts 52°
2026-04-14 14:41 16.32116 -66.70845 37007 ft 549 kts 52°
2026-04-14 14:41 16.36245 -66.64096 37002 ft 549 kts 52°
2026-04-14 14:42 16.40323 -66.57424 37002 ft 550 kts 52°
2026-04-14 14:42 16.44419 -66.50716 37004 ft 552 kts 52°
2026-04-14 14:43 16.48557 -66.43934 36998 ft 553 kts 52°
2026-04-14 14:43 16.52676 -66.37173 36999 ft 554 kts 52°
2026-04-14 14:44 16.56813 -66.30378 36997 ft 554 kts 52°
2026-04-14 14:44 16.60932 -66.23604 37000 ft 555 kts 52°
2026-04-14 14:45 16.65059 -66.16814 36994 ft 555 kts 52°
2026-04-14 14:45 16.69180 -66.10026 36996 ft 554 kts 52°
2026-04-14 14:46 16.73298 -66.03238 36999 ft 554 kts 52°
2026-04-14 14:46 16.77406 -65.96457 36994 ft 554 kts 52°
2026-04-14 14:47 16.81532 -65.89639 36992 ft 553 kts 52°
2026-04-14 14:47 16.85655 -65.82821 36996 ft 552 kts 52°
2026-04-14 14:48 16.89755 -65.76038 37002 ft 552 kts 52°
2026-04-14 14:48 16.93849 -65.69251 36999 ft 553 kts 52°
2026-04-14 14:49 16.97950 -65.62450 36993 ft 554 kts 52°
2026-04-14 14:49 17.02058 -65.55636 36991 ft 554 kts 52°
2026-04-14 14:50 17.06137 -65.48849 36654 ft 549 kts 52°
2026-04-14 14:50 17.08159 -65.45482 36238 ft 544 kts 52°
2026-04-14 14:50 17.10159 -65.42147 35836 ft 539 kts 52°
2026-04-14 14:50 17.12139 -65.38848 35415 ft 534 kts 52°
2026-04-14 14:51 17.14106 -65.35571 34987 ft 530 kts 52°
2026-04-14 14:51 17.16058 -65.32320 34557 ft 526 kts 52°
2026-04-14 14:51 17.17998 -65.29088 34144 ft 524 kts 51°
2026-04-14 14:51 17.19927 -65.25872 33648 ft 521 kts 51°
2026-04-14 14:52 17.21848 -65.22670 33203 ft 517 kts 52°
2026-04-14 14:52 17.23750 -65.19496 32730 ft 513 kts 52°
2026-04-14 14:52 17.25637 -65.16345 32305 ft 509 kts 52°
2026-04-14 14:52 17.27509 -65.13215 31869 ft 506 kts 53°
2026-04-14 14:53 17.29372 -65.10103 31417 ft 502 kts 53°
2026-04-14 14:53 17.31219 -65.07016 30971 ft 499 kts 53°
2026-04-14 14:53 17.33054 -65.03946 30513 ft 496 kts 53°
2026-04-14 14:53 17.34874 -65.00903 30065 ft 492 kts 54°
2026-04-14 14:54 17.36685 -64.97870 29536 ft 489 kts 54°
2026-04-14 14:54 17.38484 -64.94854 29038 ft 486 kts 54°
2026-04-14 14:54 17.40271 -64.91861 28611 ft 484 kts 54°
2026-04-14 14:54 17.42049 -64.88881 28142 ft 483 kts 55°
2026-04-14 14:55 17.43829 -64.85900 27651 ft 480 kts 56°
2026-04-14 14:55 17.45588 -64.82946 27188 ft 476 kts 56°
2026-04-14 14:55 17.47330 -64.80019 26757 ft 472 kts 56°
2026-04-14 14:55 17.49059 -64.77110 26298 ft 468 kts 56°
2026-04-14 14:56 17.52466 -64.71381 25424 ft 460 kts 57°
2026-04-14 14:56 17.54155 -64.68535 24971 ft 457 kts 57°
2026-04-14 14:56 17.55847 -64.65695 24510 ft 459 kts 57°
2026-04-14 14:57 17.57523 -64.62849 24082 ft 458 kts 58°
2026-04-14 14:57 17.59192 -64.60012 23594 ft 456 kts 58°
2026-04-14 14:57 17.60869 -64.57204 23093 ft 452 kts 58°
2026-04-14 14:57 17.62528 -64.54422 22594 ft 448 kts 58°
2026-04-14 14:58 17.64170 -64.51666 22143 ft 445 kts 58°
2026-04-14 14:58 17.65805 -64.48929 21693 ft 439 kts 58°
2026-04-14 14:58 17.67409 -64.46221 21256 ft 434 kts 58°
2026-04-14 14:58 17.68991 -64.43545 20829 ft 431 kts 58°
2026-04-14 14:59 17.70567 -64.40863 20380 ft 432 kts 58°
2026-04-14 14:59 17.72137 -64.38202 19927 ft 425 kts 58°
2026-04-14 14:59 17.73688 -64.35586 19490 ft 420 kts 57°
2026-04-14 14:59 17.75247 -64.33006 19049 ft 416 kts 58°
2026-04-14 15:00 17.76757 -64.30428 18618 ft 414 kts 58°
2026-04-14 15:00 17.78260 -64.27858 18164 ft 412 kts 58°
2026-04-14 15:00 17.79631 -64.25268 17682 ft 410 kts 65°
2026-04-14 15:00 17.80703 -64.22505 17225 ft 407 kts 71°
2026-04-14 15:01 17.81443 -64.19668 16780 ft 401 kts 78°
2026-04-14 15:01 17.82062 -64.16822 16348 ft 398 kts 77°
2026-04-14 15:01 17.82698 -64.13976 15912 ft 395 kts 77°
2026-04-14 15:01 17.83320 -64.11212 15488 ft 392 kts 77°
2026-04-14 15:02 17.83943 -64.08444 15065 ft 389 kts 77°
2026-04-14 15:02 17.84567 -64.05693 14644 ft 387 kts 77°
2026-04-14 15:02 17.85190 -64.02959 14227 ft 384 kts 77°
2026-04-14 15:02 17.85812 -64.00239 13822 ft 382 kts 78°
2026-04-14 15:03 17.86427 -63.97538 13368 ft 379 kts 78°
2026-04-14 15:03 17.87034 -63.94858 12930 ft 376 kts 78°
2026-04-14 15:03 17.87636 -63.92197 12510 ft 373 kts 78°
2026-04-14 15:03 17.88241 -63.89528 12090 ft 370 kts 78°
2026-04-14 15:04 17.88832 -63.86914 11678 ft 367 kts 78°
2026-04-14 15:04 17.89413 -63.84351 11277 ft 364 kts 78°
2026-04-14 15:04 17.89991 -63.81809 10849 ft 341 kts 78°
2026-04-14 15:04 17.90521 -63.79470 10468 ft 319 kts 78°
2026-04-14 15:05 17.91015 -63.77291 10279 ft 293 kts 78°
2026-04-14 15:05 17.91467 -63.75296 10136 ft 270 kts 78°
2026-04-14 15:05 17.91897 -63.73379 10060 ft 277 kts 79°
2026-04-14 15:05 17.92355 -63.71329 9822 ft 298 kts 79°
2026-04-14 15:06 17.92837 -63.69185 9464 ft 304 kts 78°
2026-04-14 15:06 17.93323 -63.67032 9198 ft 299 kts 78°
2026-04-14 15:06 17.93789 -63.64944 8788 ft 289 kts 80°
2026-04-14 15:06 17.94226 -63.62932 8440 ft 278 kts 80°
2026-04-14 15:07 17.94650 -63.60964 8120 ft 274 kts 79°
2026-04-14 15:07 17.95069 -63.59015 7808 ft 274 kts 80°
2026-04-14 15:07 17.95490 -63.57061 7506 ft 275 kts 79°
2026-04-14 15:07 17.95913 -63.55102 7186 ft 275 kts 80°
2026-04-14 15:08 17.96334 -63.53147 6859 ft 275 kts 80°
2026-04-14 15:08 17.96755 -63.51194 6539 ft 274 kts 80°
2026-04-14 15:08 17.97178 -63.49224 6213 ft 278 kts 80°
2026-04-14 15:08 17.97607 -63.47250 5870 ft 277 kts 80°
2026-04-14 15:09 17.98033 -63.45283 5527 ft 276 kts 80°
2026-04-14 15:09 17.98454 -63.43324 5188 ft 271 kts 80°
2026-04-14 15:09 17.98858 -63.41458 4870 ft 254 kts 80°
2026-04-14 15:09 17.99241 -63.39662 4578 ft 253 kts 81°
2026-04-14 15:10 17.99631 -63.37833 4290 ft 260 kts 80°
2026-04-14 15:10 18.00042 -63.35951 3978 ft 266 kts 80°
2026-04-14 15:10 18.00440 -63.34072 3788 ft 258 kts 81°
2026-04-14 15:10 18.00824 -63.32287 3660 ft 250 kts 80°
2026-04-14 15:11 18.01205 -63.30528 3471 ft 246 kts 80°
2026-04-14 15:11 18.01557 -63.28773 3143 ft 237 kts 84°
2026-04-14 15:11 18.01794 -63.27117 2839 ft 224 kts 85°
2026-04-14 15:11 18.02006 -63.25570 2569 ft 209 kts 85°
2026-04-14 15:12 18.02212 -63.24112 2325 ft 196 kts 86°
2026-04-14 15:12 18.02409 -63.22740 2043 ft 184 kts 85°
2026-04-14 15:12 18.02593 -63.21463 1801 ft 169 kts 86°
2026-04-14 15:12 18.02763 -63.20272 1809 ft 158 kts 85°
2026-04-14 15:13 18.02919 -63.19190 1691 ft 143 kts 87°
2026-04-14 15:13 18.03064 -63.18149 1738 ft 147 kts 86°
2026-04-14 15:13 18.03195 -63.17406 1519 ft 157 kts 83°
2026-04-14 15:13 18.03455 -63.15943 1038 ft 148 kts 86°
2026-04-14 15:14 18.03534 -63.15228 804 ft 143 kts 88°
2026-04-14 15:14 18.03654 -63.14203 579 ft 143 kts 88°
2026-04-14 15:14 18.03786 -63.13172 330 ft 140 kts 85°
2026-04-14 15:14 18.03916 -63.12184 97 ft 135 kts 85°
2026-04-14 15:15 18.04041 -63.11241 27 ft 123 kts 80°
2026-04-14 15:15 18.04127 -63.10597 26 ft 59 kts 81°
2026-04-14 15:15 18.04173 -63.10326 28 ft 24 kts 79°
2026-04-14 15:15 18.04199 -63.10154 28 ft 24 kts 82°
2026-04-14 15:16 18.04219 -63.10010 25 ft 11 kts 81°
2026-04-14 15:16 18.04249 -63.09936 27 ft 11 kts 54°
2026-04-14 15:16 18.04278 -63.09894 25 ft 1 kts 52°
2026-04-14 15:16 18.04287 -63.09880 27 ft 5 kts 66°
2026-04-14 15:17 18.04284 -63.09855 25 ft 2 kts 116°
2026-04-14 15:17 18.04267 -63.09846 30 ft 3 kts 169°
2026-04-14 15:17 18.04247 -63.09861 27 ft 4 kts 239°
2026-04-14 15:17 18.04233 -63.09927 26 ft 17 kts 261°
2026-04-14 15:18 18.04211 -63.10092 26 ft 24 kts 262°
2026-04-14 15:18 18.04184 -63.10263 26 ft 23 kts 261°
2026-04-14 15:18 18.04163 -63.10412 28 ft 17 kts 261°
2026-04-14 15:18 18.04147 -63.10517 27 ft 14 kts 261°
2026-04-14 15:19 18.04133 -63.10616 26 ft 14 kts 262°
2026-04-14 15:19 18.04119 -63.10715 29 ft 14 kts 261°
2026-04-14 15:19 18.04105 -63.10814 28 ft 14 kts 261°
2026-04-14 15:19 18.04090 -63.10913 26 ft 14 kts 261°
2026-04-14 15:20 18.04077 -63.11012 27 ft 14 kts 262°
2026-04-14 15:20 18.04063 -63.11110 27 ft 14 kts 260°
2026-04-14 15:20 18.04050 -63.11198 30 ft 13 kts 262°
2026-04-14 15:20 18.04048 -63.11257 25 ft 6 kts 287°
2026-04-14 15:21 18.04083 -63.11283 25 ft 7 kts 343°
2026-04-14 15:21 18.04126 -63.11281 29 ft 7 kts 38°
2026-04-14 15:21 18.04140 -63.11234 29 ft 7 kts 79°
2026-04-14 15:21 18.04148 -63.11183 27 ft 7 kts 82°
2026-04-14 15:22 18.04155 -63.11132 27 ft 7 kts 79°
2026-04-14 15:22 18.04189 -63.11102 26 ft 5 kts
2026-04-14 15:22 18.04221 -63.11109 28 ft 4 kts 332°
2026-04-14 15:22 18.04233 -63.11127 29 ft 3 kts 291°
2026-04-14 15:23 18.04231 -63.11151 26 ft 4 kts 262°
2026-04-14 15:23 18.04226 -63.11180 29 ft 4 kts 261°
2026-04-14 15:23 18.04221 -63.11215 26 ft 5 kts 261°
2026-04-14 15:23 18.04215 -63.11255 29 ft 6 kts 261°
2026-04-14 15:24 18.04212 -63.11275 30 ft 2 kts 261°
2026-04-14 15:24 18.04214 -63.11289 30 ft 2 kts 290°
2026-04-14 15:24 18.04227 -63.11300 26 ft 3 kts 331°
2026-04-14 15:24 18.04253 -63.11295 26 ft 4 kts 22°
2026-04-14 15:25 18.04278 -63.11288 29 ft 3 kts
2026-04-14 15:25 18.04298 -63.11288 30 ft 2 kts 358°
2026-04-14 15:25 18.04313 -63.11290 26 ft 1 kts 353°
2026-04-14 15:25 18.04321 -63.11291 26 ft 1 kts 352°
2026-04-14 15:26 18.04330 -63.11292 26 ft 0 kts 352°
2026-04-14 15:26 18.04334 -63.11293 26 ft 1 kts 352°
2026-04-14 15:26 18.04341 -63.11294 26 ft 0 kts 352°
2026-04-14 15:26 18.04343 -63.11294 26 ft 0 kts 352°
2026-04-14 15:27 18.04343 -63.11295 36 ft 0 kts 354°